Regional Weather Roundup
Issued by NWS

Home | Current Version | Previous Version | Text Only | Print | Product List | Glossary On
Versions: 1 2 3 4 5 6 7 8 9 10 11 12 13 14 15 16 17 18 19 20 21 22 23 24 25 26 27 28 29 30 31 32 33 34 35 36 37 38 39 40 41 42 43 44 45 46 47 48 49 50
000
ASUS43 KDTX 291110
RWRMI
MICHIGAN HOURLY REGIONAL WEATHER ROUNDUP
NATIONAL WEATHER SERVICE DETROIT/PONTIAC MI
600 AM EST THU JAN 29 2015

NOTE: "FAIR" INDICATES FEW OR NO CLOUDS BELOW 12,000 FEET WITH NO
SIGNIFICANT WEATHER AND/OR OBSTRUCTION TO VISIBILITY.

MIZ047>049-052>055-059>063-066>070-074>076-081>083-291200-
SOUTHEAST LOWER MICHIGAN

CITY           SKY/WX    TMP DP  RH WIND       PRES   REMARKS
ADRIAN         CLOUDY    28  21  75 S9        29.84F
ALMA           CLOUDY    27  24  88 SE7       29.80F
ANN ARBOR      CLOUDY    28  20  71 SE7       29.86F
BAD AXE        LGT SNOW  25  20  79 S16G25    29.87F
DETROIT CITY   FLURRIES  30  18  60 SE8       29.90F
DETROIT        LGTSLEET  28  19  69 SE8       29.90F
FLINT          CLOUDY    30  19  63 S14G22    29.84F
GROSSE ILE     MIX PCPN  28  19  69 SE9       29.89F
HILLSDALE      MOCLDY    28  24  85 SE9       29.78F
HOWELL         FLURRIES  26  22  84 SE13      29.82F

CITY           SKY/WX    TMP DP  RH WIND       PRES   REMARKS
JACKSON        MIX PCPN  29  22  75 S13       29.79F
LAMBERTVILLE   FLURRIES  32  21  64 S6        29.87F
LANSING        CLOUDY    29  22  75 SE12      29.80F
LAPEER         NOT AVBL
MASON          FLURRIES  29  23  78 S13       29.80F
MONROE         CLOUDY    28  21  74 SE5       29.87F
MT. CLEMENS    MIX PCPN  27  19  74 SE13      29.89F
PONTIAC        LGTSLEET  26  18  71 SE8       29.86F
PORT HOPE        N/A     27  16  63 S14G23    29.85F
PORT HURON     CLOUDY    28  16  59 S13G18    29.93F
TRI CITIES     CLOUDY    27  23  85 SE10      29.83F
YPSILANTI      FRZ RAIN  31  20  63 SE7       29.89F
$$
MIZ043>046-050>051-056>058-064>065-071>073-077>080-291200-
SOUTHWEST LOWER MICHIGAN

CITY           SKY/WX    TMP DP  RH WIND       PRES   REMARKS
BATTLE CREEK   CLOUDY    32  23  69 S12       29.76F
BENTON HARBOR  CLOUDY    33  25  72 SE7       29.72F
BIG RAPIDS     CLOUDY    27  23  85 SE6       29.76F
COLDWATER      CLOUDY    31  23  74 S9        29.77F
HOLLAND        CLOUDY    32  26  78 E6        29.75F
GRAND RAPIDS   CLOUDY    30  25  81 E7        29.76F
KALAMAZOO      CLOUDY    32  24  72 S9        29.75F
MARSHALL       CLOUDY    31  23  73 S8        29.77F
MUSKEGON       CLOUDY    30  24  78 E8        29.76F
$$
MIZ016>042-291200-
NORTHERN LOWER MICHIGAN

CITY           SKY/WX    TMP DP  RH WIND       PRES   REMARKS
ALPENA         LGT SNOW  25  16  68 S12       29.84F
BEAVER ISLAND  CLOUDY    29  18  64 CALM      29.78F
BELLAIRE       LGT SNOW  25  22  88 S5        29.81F
CADILLAC       FLURRIES  22  20  91 SE5       29.75F
CHARLEVOIX     FLURRIES  28  18  67 S7G22     29.82F
FRANKFORT      FLURRIES  27  24  89 SE5       29.77F
GAYLORD        SNOW      21  20  96 S7        29.76F VSB 1/2
GRAYLING       LGT SNOW  23  22  94 SE5       29.79F
HARBOR SPRINGS FLURRIES  28  17  64 SW8       29.79F
HOUGHTON LAKE  SNOW      22  19  89 SE6       29.79F VSB 1/2
MANISTEE       CLOUDY    27  21  80 E6        29.77F
OSCODA         LGT SNOW  26  20  79 S10G21    29.85F
PELLSTON       LGT SNOW  27  18  69 S5        29.80F
TRAVERSE CITY  LGT SNOW  25  22  88 S3        29.78F FOG
$$
MIZ007>008-015-291200-
EASTERN UPPER MICHIGAN

CITY           SKY/WX    TMP DP  RH WIND       PRES   REMARKS
KINROSS        CLOUDY    25  19  80 SE7       29.78F
MACKINAC ISLAN CLOUDY    28  14  56 S6        29.78F
NEWBERRY       LGT SNOW  22  21  96 CALM      29.77F
S. S. MARIE    LGT SNOW  26  18  71 SE5       29.80F
$$
MIZ004>006-011>014-085-291200-
CENTRAL UPPER MICHIGAN

CITY           SKY/WX    TMP DP  RH WIND       PRES   REMARKS
MANISTIQUE     LGT SNOW  30  28  91 S9        29.76F
ESCANABA       CLOUDY    28  27  93 CALM      29.77S VSB 1
MENOMINEE      CLOUDY    30  25  80 NW3       29.76S
SAWYER-GWINN   CLOUDY    26  24  93 W3        29.73F
$$
MIZ001>003-009>011-084-291200-
WESTERN UPPER MICHIGAN

CITY           SKY/WX    TMP DP  RH WIND       PRES   REMARKS
IRON MOUNTAIN  CLOUDY    27  25  92 NW5       29.74S FOG
HOUGHTON       CLOUDY    29  25  85 NW16G24   29.74S
COPPER HARBOR    N/A     32  27  81 N20       29.74F
IRONWOOD       CLOUDY    28  27  93 NW14G21   29.79R
$$

ABBREVIATIONS USED IN REMARKS
   TC - TEMPERATURE IN CELSIUS
  WCI - WIND CHILL INDEX
   HX - HEAT INDEX
  VSB - VISIBILITY



USA.gov is the U.S. government's official web portal to all federal, state and local government web resources and services.